星链-2637 (STARLINK-2637 )

导读 | 豆包AI

STARLINK-2637是美国SpaceX公司星链星座的一员,于2021年5月4日由猎鹰9号运载火箭发射升空,属于星链低轨卫星互联网星座项目。该卫星运行在近地轨道,承担着为全球提供高速卫星互联网接入服务的任务,可覆盖偏远地区网络接入、移动场景通信及应急通信等场景,是星链计划中构建全球巨型低轨卫星网络的重要组成部分。

基本信息
目录编号:
48356
目录名称:
STARLINK-2637
国际标识:
2021-038D
轨道中心:
EARTH
卫星名称:
星链-2637
卫星全名:
星链-2637 (STARLINK-2637 )
卫星状态:
在轨 (已飞行1775 天)
发射日期:
2021-05-04 UTC
国别 :
美国 (US)
星等 :
--
轨道信息
数据来源 国际轨道数据
星历时间: 2026-03-14T08:18:27+0800
17小时前
查看轨道信息
半长轴: 6853.371km
偏心率: 0.0001038
轨道倾角: 53.160°
近地点辐角 87.344°
升交点赤经 338.061°
平近点角 272.768°
近地点: 474.522km
远地点: 475.946km
周期: 94.106分钟
每日圈数: 15.301939
详细信息
固有亮度:
5
最大亮度:
2.5
卫星平台:
Starlink V1.0
覆盖范围:
全球
运营商:
太空探索技术公司
运营商所在国:
美国
制造商(研发单位):
太空探索技术公司
制造商所在国:
美国
使用方式:
暂无
卫星简介
星链(Starlink)计划是由太空探索技术公司(SpaceX)提出的一个巨型低轨卫星互联网星座项目,计划在2019年至2024年间在太空搭建由约1.2万颗卫星组成的“星链”网络,其中1584颗将部署在地球上空550千米处的近地轨道,并从2020年开始工作。该卫星仍在工作。
2D轨道图
3D轨道图
轨道高度分析图
轨道倾角分析图
轨道综合分析图
查看轨道综合分析图